Waarnemingen

Advertentie
Mijn weer
Schaffen, België (6465): temperatuur & dauwpunt: 19.04.2018 12:00:00 - 25.04.2018 12:00:00 (CEST)Schaffen, België (6465): windsnelheid & windstoten: 19.04.2018 12:00:00 - 25.04.2018 12:00:00 (CEST)Schaffen, België (6465): windrichting: 19.04.2018 12:00:00 - 25.04.2018 12:00:00 (CEST)Schaffen, België (6465): luchtdruk: 19.04.2018 12:00:00 - 25.04.2018 12:00:00 (CEST)Schaffen, België (6465): zicht: 19.04.2018 12:00:00 - 25.04.2018 12:00:00 (CEST)
Datum & Tijd tt [°C] td [°C] ff [km/u] ff [kn] fx [km/u] fx [kn] dd ppp [hPa] vv [km]
25.04.2018 12:00:00 13,4 6,8 14 8 36 19 W 1013,2 20
25.04.2018 11:00:00 13,1 8,0 14 8 - - WNW 1012,5 20
25.04.2018 10:00:00 12,1 8,1 18 10 36 19 NW 1011,7 20
25.04.2018 09:00:00 12,5 10,4 18 10 32 18 W 1011,2 20
25.04.2018 08:00:00 11,6 10,6 18 10 - - W 1010,7 20
25.04.2018 07:00:00 11,6 10,2 18 10 36 19 W 1010,0 5
25.04.2018 06:00:00 13,2 9,5 14 8 32 18 WZW 1009,5 20
25.04.2018 05:00:00 13,6 9,6 22 12 - - WZW 1009,5 20
25.04.2018 04:00:00 13,8 9,6 18 10 36 19 WZW 1009,5 20
25.04.2018 03:00:00 14,3 10,0 14 8 29 16 WZW 1009,8 20
25.04.2018 02:00:00 14,3 10,5 14 8 - - W 1010,2 20
25.04.2018 01:00:00 15,2 10,2 7 4 18 10 ZW 1010,6 20
25.04.2018 00:00:00 15,0 10,6 7 4 14 8 Z 1011,2 20
24.04.2018 23:00:00 15,3 10,4 7 4 - - ZZW 1012,2 20
24.04.2018 22:00:00 15,3 10,2 7 4 18 10 ZW 1012,8 20
24.04.2018 21:00:00 15,0 9,3 4 2 11 6 N 1013,2 20
24.04.2018 20:00:00 15,3 8,4 7 4 - - N 1013,7 20
24.04.2018 19:00:00 15,5 8,4 11 6 25 14 ZW 1014,2 20
24.04.2018 18:00:00 15,3 7,9 11 6 29 16 ZW 1015,2 20
24.04.2018 17:00:00 15,3 8,0 14 8 - - ZW 1015,7 20
24.04.2018 16:00:00 15,0 8,7 11 6 25 14 ZW 1016,7 20
24.04.2018 15:00:00 13,5 8,4 11 6 29 16 WZW 1017,6 20
24.04.2018 14:00:00 13,2 7,7 18 10 - - W 1017,8 20
24.04.2018 13:00:00 12,5 7,8 18 10 29 16 WZW 1018,2 20
24.04.2018 12:00:00 11,8 7,8 11 6 25 14 ZW 1018,5 20
24.04.2018 11:00:00 11,0 7,8 11 6 - - ZW 1018,3 20
24.04.2018 10:00:00 9,8 7,8 7 4 18 10 ZW 1018,2 20
24.04.2018 09:00:00 9,8 6,3 11 6 22 12 ZW 1017,7 12
24.04.2018 08:00:00 9,3 5,7 7 4 - - ZW 1017,7 20
24.04.2018 07:00:00 8,6 5,4 11 6 25 14 ZW 1017,3 20
24.04.2018 06:00:00 8,3 5,2 11 6 22 12 ZW 1017,2 20
24.04.2018 05:00:00 8,0 5,0 11 6 - - ZZW 1017,6 20
24.04.2018 04:00:00 8,1 5,0 11 6 22 12 ZZW 1017,7 20
24.04.2018 03:00:00 8,6 4,9 11 6 22 12 ZZW 1018,0 20
24.04.2018 02:00:00 8,6 5,2 7 4 - - ZZW 1018,2 20
24.04.2018 01:00:00 9,3 4,9 11 6 25 14 WZW 1018,7 20
24.04.2018 00:00:00 10,2 5,3 11 6 22 12 WZW 1018,6 20
23.04.2018 23:00:00 11,2 5,5 7 4 - - WZW 1018,2 20
23.04.2018 22:00:00 12,2 5,7 11 6 25 14 WZW 1018,1 20
23.04.2018 21:00:00 13,9 5,8 14 8 25 14 WZW 1017,6 20
23.04.2018 20:00:00 15,3 5,7 14 8 - - W 1017,0 20
23.04.2018 19:00:00 15,9 5,3 11 6 29 16 W 1017,1 20
23.04.2018 18:00:00 16,5 5,4 18 10 29 16 W 1017,2 20
23.04.2018 17:00:00 17,1 6,1 18 10 - - W 1017,1 20
23.04.2018 16:00:00 17,0 6,8 14 8 29 16 W 1017,1 20
23.04.2018 15:00:00 17,7 7,5 14 8 32 18 W 1017,0 20
23.04.2018 14:00:00 16,8 6,9 11 6 - - WZW 1017,1 20
23.04.2018 13:00:00 16,7 7,5 18 10 29 16 WZW 1017,3 20
23.04.2018 12:00:00 15,3 7,2 18 10 32 18 WZW 1017,1 20
23.04.2018 11:00:00 14,6 7,6 18 10 - - W 1016,7 20
23.04.2018 10:00:00 14,8 9,4 11 6 22 12 W 1016,1 20
23.04.2018 09:00:00 13,3 8,5 11 6 22 12 W 1015,7 20
23.04.2018 08:00:00 12,3 7,5 11 6 - - W 1015,6 20
23.04.2018 07:00:00 12,3 6,8 14 8 22 12 W 1014,7 20
23.04.2018 06:00:00 13,1 6,2 11 6 18 10 W 1014,3 20
23.04.2018 05:00:00 14,0 6,5 7 4 - - WZW 1013,8 20
23.04.2018 04:00:00 15,1 7,1 14 8 29 16 W 1013,2 20
23.04.2018 03:00:00 16,0 9,9 11 6 18 10 WZW 1012,8 20
23.04.2018 02:00:00 16,8 10,3 4 2 - - N 1012,8 20
23.04.2018 01:00:00 18,0 9,1 4 2 18 10 N 1012,5 20
23.04.2018 00:00:00 18,8 10,5 11 6 18 10 WZW 1012,2 20
22.04.2018 23:00:00 19,0 12,7 11 6 - - WNW 1011,7 16
22.04.2018 22:00:00 19,7 11,8 7 4 14 8 WNW 1011,1 20
22.04.2018 21:00:00 21,8 9,3 7 4 22 12 ZW 1010,5 20
22.04.2018 20:00:00 23,7 8,9 11 6 - - ZW 1009,8 20
22.04.2018 19:00:00 24,8 9,6 18 10 47 25 WZW 1009,7 19
22.04.2018 18:00:00 25,4 9,9 25 14 47 25 WZW 1009,6 20
22.04.2018 17:00:00 26,2 10,2 22 12 - - ZW 1009,2 20
22.04.2018 16:00:00 26,7 13,5 11 6 29 16 ZZW 1009,5 20
22.04.2018 15:00:00 25,6 12,8 14 8 29 16 Z 1010,2 20
22.04.2018 14:00:00 24,0 14,2 14 8 - - Z 1010,8 20
22.04.2018 13:00:00 21,2 13,5 13 7 14 8 ZO 1012,0 10
22.04.2018 12:00:00 20,7 13,4 7 4 14 8 OZO 1011,7 10
22.04.2018 11:00:00 19,3 13,0 7 4 - - Z 1013,2 7
22.04.2018 10:00:00 18,3 12,7 7 4 14 8 Z 1013,1 7
22.04.2018 09:00:00 15,3 11,6 7 4 11 6 Z 1013,5 7
22.04.2018 08:00:00 12,6 10,3 4 2 - - N 1013,8 8
22.04.2018 07:00:00 11,8 9,6 4 2 7 4 N 1013,7 9
22.04.2018 06:00:00 12,1 9,0 4 2 7 4 N 1013,8 11
22.04.2018 05:00:00 13,1 8,5 4 2 - - N 1014,7 13
22.04.2018 04:00:00 14,6 8,8 4 2 7 4 N 1015,2 15
22.04.2018 03:00:00 15,1 8,7 4 2 11 6 N 1015,6 16
22.04.2018 02:00:00 14,9 8,4 4 2 - - N 1016,2 19
22.04.2018 01:00:00 15,3 8,5 7 4 11 6 NO 1017,0 19
22.04.2018 00:00:00 16,3 8,6 7 4 14 8 N 1017,7 20
21.04.2018 23:00:00 17,6 9,0 7 4 - - NO 1018,1 20
21.04.2018 22:00:00 17,9 9,3 7 4 11 6 NO 1018,2 20
21.04.2018 21:00:00 20,3 9,1 7 4 11 6 ONO 1018,2 20
21.04.2018 20:00:00 21,8 9,3 7 4 - - ONO 1018,2 19
21.04.2018 19:00:00 23,0 8,8 11 6 14 8 ONO 1018,3 17
21.04.2018 18:00:00 23,5 10,2 7 4 22 12 NNO 1018,8 19
21.04.2018 17:00:00 24,5 8,8 4 2 - - N 1019,5 9
21.04.2018 16:00:00 23,4 10,8 7 4 14 8 N 1020,2 10
21.04.2018 15:00:00 22,9 11,2 4 2 14 8 N 1020,7 10
21.04.2018 14:00:00 21,5 10,8 7 4 - - NNO 1021,3 6
21.04.2018 13:00:00 20,5 12,4 4 2 14 8 N 1022,1 3,9
21.04.2018 12:00:00 18,5 11,7 8 4 11 6 NNO 1022,7 3,3
21.04.2018 11:00:00 16,5 11,7 4 2 - - N 1023,1 2,9
21.04.2018 10:00:00 15,0 11,5 4 2 7 4 N 1023,0 2,1
21.04.2018 09:00:00 11,8 10,5 4 2 7 4 N 1023,2 1,2
21.04.2018 08:00:00 10,3 9,5 4 2 - - N 1023,2 1,0
21.04.2018 07:00:00 9,4 8,8 7 4 11 6 NW 1022,6 0,9
21.04.2018 06:00:00 9,8 9,0 7 4 11 6 NW 1022,1 1,0
21.04.2018 05:00:00 10,6 9,4 11 6 - - NW 1022,2 1,4
21.04.2018 04:00:00 11,8 9,8 7 4 11 6 NW 1022,2 2,0
21.04.2018 03:00:00 12,6 10,2 11 6 11 6 NW 1022,6 2,7
21.04.2018 02:00:00 13,9 10,5 7 4 - - NW 1022,7 4,7
21.04.2018 01:00:00 15,4 10,6 4 2 11 6 N 1022,7 12
21.04.2018 00:00:00 17,2 10,0 4 2 7 4 N 1022,3 19
20.04.2018 23:00:00 18,7 9,9 4 2 - - N 1022,3 20
20.04.2018 22:00:00 20,1 7,2 7 4 14 8 N 1022,2 20
20.04.2018 21:00:00 20,7 7,5 11 6 18 10 NNW 1021,8 20
20.04.2018 20:00:00 22,7 8,1 14 8 - - NNW 1021,5 20
20.04.2018 19:00:00 24,3 10,5 18 10 25 14 NNW 1021,5 20
20.04.2018 18:00:00 27,0 8,4 7 4 22 12 W 1021,3 20
20.04.2018 17:00:00 27,1 9,8 7 4 - - WNW 1021,7 20
20.04.2018 16:00:00 27,1 10,0 11 6 25 14 W 1022,1 20
20.04.2018 15:00:00 26,8 10,3 14 8 25 14 W 1022,5 20
20.04.2018 14:00:00 26,8 11,8 7 4 - - WZW 1022,7 20
20.04.2018 13:00:00 25,6 11,9 7 4 18 10 ZZW 1023,2 20
20.04.2018 12:00:00 24,2 14,4 4 2 14 8 N 1023,6 20
20.04.2018 11:00:00 21,7 13,3 7 4 - - Z 1023,6 20
20.04.2018 10:00:00 20,2 13,0 7 4 7 4 N 1023,3 20
20.04.2018 09:00:00 16,4 11,3 7 4 7 4 Z 1023,5 15
20.04.2018 08:00:00 13,4 10,9 7 4 - - Z 1023,6 15
20.04.2018 07:00:00 12,6 10,0 7 4 11 6 Z 1023,5 15
20.04.2018 06:00:00 12,8 10,2 7 4 7 4 Z 1023,5 15
20.04.2018 05:00:00 14,6 10,2 7 4 - - Z 1023,7 17
20.04.2018 04:00:00 16,8 9,9 7 4 7 4 ZZW 1024,0 20
20.04.2018 03:00:00 15,6 10,2 7 4 11 6 Z 1024,0 20
20.04.2018 02:00:00 16,1 10,0 7 4 - - Z 1024,4 20
20.04.2018 01:00:00 17,3 10,0 4 2 7 4 N 1024,2 20
20.04.2018 00:00:00 18,7 9,8 4 2 4 2 N 1024,2 20
19.04.2018 23:00:00 20,9 8,3 4 2 - - N 1024,2 20
19.04.2018 22:00:00 23,5 7,1 4 2 7 4 N 1024,2 20
19.04.2018 21:00:00 24,3 6,8 4 2 7 4 N 1023,6 20
19.04.2018 20:00:00 26,2 6,2 4 2 - - N 1023,3 20
19.04.2018 19:00:00 26,6 6,0 11 6 22 12 Z 1023,3 20
19.04.2018 18:00:00 27,4 7,6 11 6 25 14 Z 1023,5 17
19.04.2018 17:00:00 28,6 5,6 11 6 - - ZZO 1023,7 20
19.04.2018 16:00:00 28,7 4,3 14 8 29 16 ZO 1024,2 20
19.04.2018 15:00:00 28,0 4,7 11 6 29 16 ZO 1024,7 20
19.04.2018 14:00:00 27,9 7,2 14 8 - - ZO 1025,0 20
19.04.2018 13:00:00 26,7 6,9 14 8 25 14 ZO 1025,7 19
19.04.2018 12:00:00 25,4 6,5 18 10 25 14 ZO 1026,2 20

tt = temperatuur
td = dauwpunt
ff = windsnelheid
fx = windstoten
dd = windrichting
ppp = luchtdruk
vv = zicht

Weerstations in de omgeving